BAW5B EGLL-LIPE

Flight info

Callsign BAW5B
Flight time 1h 42m
Altitude 39000
Route DET1J DET L6 DVR UL9 KONAN DCT KOK DCT SISGA DCT RITAX DCT KRH DCT TEDGO DCT BATUB DCT TIRUL M738 NATAG DCT LORLO DCT RENTA DCT UNTAD DCT NEGIK DCT ADOSA M738 BENUS BENUS4M
Aircraft A20N/M-SDGHIJ1LRWXY/SB1

Departure

Time 2026-05-04 11:10
Airport London Heathrow Airport (EGLL)

Arrival

Time 2026-05-04 12:52
Airport Bologna Guglielmo Marconi Airport (LIPE)
Time Latitude Longitude Altitude Speed Heading
2026-05-04 10:12 51.46930 -0.48859 90 ft 0 kts 360°
2026-05-04 10:54 51.46926 -0.48859 86 ft 3 kts 360°
2026-05-04 10:54 51.46906 -0.48859 90 ft 3 kts 360°
2026-05-04 10:56 51.46877 -0.48701 86 ft 1 kts 270°
2026-05-04 10:56 51.46877 -0.48700 86 ft 0 kts 270°
2026-05-04 10:58 51.46877 -0.48701 86 ft 0 kts 270°
2026-05-04 10:59 51.46869 -0.48731 91 ft 6 kts 228°
2026-05-04 10:59 51.46806 -0.48750 86 ft 13 kts 180°
2026-05-04 10:59 51.46749 -0.48722 87 ft 2 kts 122°
2026-05-04 10:59 51.46742 -0.48653 86 ft 11 kts 92°
2026-05-04 11:00 51.46736 -0.48496 86 ft 12 kts 114°
2026-05-04 11:01 51.46656 -0.47145 87 ft 21 kts 90°
2026-05-04 11:02 51.46657 -0.46918 89 ft 20 kts 90°
2026-05-04 11:02 51.46658 -0.46707 90 ft 18 kts 90°
2026-05-04 11:05 51.46608 -0.43602 86 ft 0 kts 184°
2026-05-04 11:06 51.46582 -0.43604 86 ft 8 kts 182°
2026-05-04 11:08 51.46495 -0.43692 86 ft 0 kts 269°
2026-05-04 11:10 51.46369 -0.52327 2002 ft 174 kts 251°
2026-05-04 11:12 51.37537 -0.45758 5881 ft 270 kts 135°
2026-05-04 11:12 51.36199 -0.43653 6039 ft 271 kts 136°
2026-05-04 11:12 51.34782 -0.41463 6631 ft 274 kts 137°
2026-05-04 11:12 51.33462 -0.39433 7706 ft 273 kts 137°
2026-05-04 11:13 51.32078 -0.37317 8736 ft 278 kts 136°
2026-05-04 11:13 51.30975 -0.34758 9725 ft 286 kts 112°
2026-05-04 11:13 51.30654 -0.31583 10508 ft 301 kts 88°
2026-05-04 11:13 51.30969 -0.28132 10913 ft 326 kts 80°
2026-05-04 11:14 51.31115 -0.26911 11037 ft 334 kts 81°
2026-05-04 11:14 51.31646 -0.19345 12518 ft 350 kts 89°
2026-05-04 11:16 51.31287 0.11887 18593 ft 383 kts 93°
2026-05-04 11:16 51.31217 0.16200 19263 ft 387 kts 93°
2026-05-04 11:16 51.31145 0.20490 19912 ft 391 kts 93°
2026-05-04 11:17 51.31069 0.24865 20578 ft 395 kts 93°
2026-05-04 11:17 51.30991 0.29277 21227 ft 399 kts 93°
2026-05-04 11:19 51.30061 0.61297 25192 ft 423 kts 105°
2026-05-04 11:19 51.29313 0.65835 25696 ft 423 kts 110°
2026-05-04 11:19 51.28472 0.70363 26207 ft 426 kts 110°
2026-05-04 11:19 51.27634 0.74921 26691 ft 429 kts 110°
2026-05-04 11:20 51.26793 0.79504 27183 ft 432 kts 110°
2026-05-04 11:20 51.25945 0.84119 27658 ft 435 kts 110°
2026-05-04 11:20 51.25101 0.88701 28117 ft 437 kts 111°
2026-05-04 11:20 51.24238 0.93366 28549 ft 440 kts 111°
2026-05-04 11:22 51.17977 1.26881 31158 ft 458 kts 111°
2026-05-04 11:22 51.17061 1.31742 31593 ft 458 kts 111°
2026-05-04 11:23 51.16336 1.36695 32072 ft 461 kts 104°
2026-05-04 11:23 51.15975 1.41771 32538 ft 463 kts 98°
2026-05-04 11:24 51.14512 1.72237 34773 ft 461 kts 99°
2026-05-04 11:25 51.14255 1.77312 35086 ft 460 kts 99°
2026-05-04 11:25 51.13995 1.82396 35383 ft 460 kts 99°
2026-05-04 11:25 51.13738 1.87399 35677 ft 460 kts 98°
2026-05-04 11:26 51.13209 1.97555 36159 ft 461 kts 98°
2026-05-04 11:27 51.11294 2.33015 37989 ft 459 kts 98°
2026-05-04 11:28 51.11012 2.38076 38208 ft 459 kts 98°
2026-05-04 11:28 51.10728 2.43142 38407 ft 460 kts 98°
2026-05-04 11:28 51.10442 2.48202 38624 ft 460 kts 97°
2026-05-04 11:28 51.10153 2.53270 38808 ft 459 kts 97°
2026-05-04 11:29 51.09778 2.58295 38962 ft 458 kts 102°
2026-05-04 11:29 51.09112 2.63240 39016 ft 456 kts 108°
2026-05-04 11:29 51.06956 2.72653 39011 ft 451 kts 118°
2026-05-04 11:33 50.86495 3.33831 38983 ft 448 kts 121°
2026-05-04 11:33 50.83549 3.42507 38981 ft 448 kts 121°
2026-05-04 11:34 50.80595 3.51174 38985 ft 448 kts 121°
2026-05-04 11:34 50.77632 3.59837 38988 ft 448 kts 121°
2026-05-04 11:35 50.74682 3.68434 38989 ft 448 kts 121°
2026-05-04 11:35 50.71710 3.77070 38996 ft 447 kts 122°
2026-05-04 11:36 50.68733 3.85691 38997 ft 447 kts 122°
2026-05-04 11:36 50.65749 3.94297 39001 ft 447 kts 122°
2026-05-04 11:37 50.62782 4.02827 39000 ft 447 kts 122°
2026-05-04 11:37 50.59913 4.11518 39003 ft 448 kts 118°
2026-05-04 11:38 50.57318 4.20465 39003 ft 451 kts 118°
2026-05-04 11:38 50.54686 4.29403 38996 ft 449 kts 118°
2026-05-04 11:39 50.52024 4.38266 38994 ft 449 kts 118°
2026-05-04 11:41 50.42637 4.69188 39006 ft 449 kts 119°
2026-05-04 11:41 50.39931 4.78026 39007 ft 450 kts 119°
2026-05-04 11:42 50.37219 4.86849 39003 ft 449 kts 119°
2026-05-04 11:42 50.34519 4.95605 39009 ft 450 kts 119°
2026-05-04 11:43 50.31792 5.04420 39006 ft 450 kts 119°
2026-05-04 11:43 50.29057 5.13231 38981 ft 450 kts 120°
2026-05-04 11:44 50.26311 5.22043 38982 ft 451 kts 120°
2026-05-04 11:44 50.23557 5.30847 38986 ft 452 kts 120°
2026-05-04 11:45 50.20806 5.39612 38996 ft 453 kts 120°
2026-05-04 11:45 50.18028 5.48431 38997 ft 453 kts 120°
2026-05-04 11:46 50.15235 5.57264 38997 ft 454 kts 120°
2026-05-04 11:46 50.12430 5.66106 39002 ft 455 kts 120°
2026-05-04 11:47 50.09612 5.74954 39004 ft 457 kts 120°
2026-05-04 11:47 50.06684 5.83661 39010 ft 456 kts 124°
2026-05-04 11:48 50.03506 5.92170 39002 ft 454 kts 124°
2026-05-04 11:48 50.00348 6.00673 39001 ft 455 kts 124°
2026-05-04 11:49 49.97177 6.09173 39002 ft 454 kts 124°
2026-05-04 11:49 49.94016 6.17605 39002 ft 455 kts 124°
2026-05-04 11:50 49.90829 6.26077 39005 ft 454 kts 124°
2026-05-04 11:50 49.87640 6.34526 39005 ft 454 kts 124°
2026-05-04 11:51 49.84443 6.42969 39010 ft 454 kts 124°
2026-05-04 11:51 49.81236 6.51409 39014 ft 455 kts 124°
2026-05-04 11:52 49.78021 6.59846 39000 ft 455 kts 124°
2026-05-04 11:52 49.74806 6.68259 38998 ft 454 kts 125°
2026-05-04 11:53 49.71591 6.76641 38995 ft 453 kts 125°
2026-05-04 11:53 49.68376 6.84995 38992 ft 451 kts 125°
2026-05-04 11:55 49.55505 7.18180 39014 ft 452 kts 125°
2026-05-04 11:56 49.52272 7.26452 39015 ft 450 kts 125°
2026-05-04 11:56 49.49058 7.34646 39015 ft 450 kts 125°
2026-05-04 11:57 49.45822 7.42873 39012 ft 450 kts 125°
2026-05-04 11:57 49.42571 7.51112 38999 ft 450 kts 125°
2026-05-04 11:58 49.39321 7.59325 38998 ft 450 kts 125°
2026-05-04 11:58 49.36067 7.67518 39003 ft 450 kts 125°
2026-05-04 11:59 49.32804 7.75710 39008 ft 450 kts 125°
2026-05-04 11:59 49.29537 7.83889 39012 ft 450 kts 125°
2026-05-04 12:00 49.26283 7.92008 39019 ft 450 kts 125°
2026-05-04 12:00 49.23008 8.00158 38998 ft 449 kts 126°
2026-05-04 12:01 49.19724 8.08299 39017 ft 450 kts 126°
2026-05-04 12:02 49.08205 8.36674 39015 ft 450 kts 126°
2026-05-04 12:03 49.04896 8.44768 39015 ft 450 kts 126°
2026-05-04 12:03 49.01581 8.52857 39012 ft 450 kts 126°
2026-05-04 12:04 48.98052 8.60703 39008 ft 447 kts 133°
2026-05-04 12:04 48.94073 8.67926 39013 ft 446 kts 134°
2026-05-04 12:05 48.90090 8.75155 39029 ft 446 kts 134°
2026-05-04 12:05 48.86108 8.82373 39008 ft 446 kts 134°
2026-05-04 12:06 48.82108 8.89601 39007 ft 447 kts 134°
2026-05-04 12:06 48.78129 8.96769 39002 ft 447 kts 134°
2026-05-04 12:07 48.74116 9.03978 39010 ft 448 kts 134°
2026-05-04 12:07 48.70100 9.11176 38995 ft 446 kts 134°
2026-05-04 12:08 48.66098 9.18327 38992 ft 447 kts 135°
2026-05-04 12:08 48.61537 9.24597 38993 ft 440 kts 150°
2026-05-04 12:09 48.56195 9.28834 38995 ft 431 kts 164°
2026-05-04 12:09 48.50520 9.31726 38997 ft 430 kts 165°
2026-05-04 12:10 48.44846 9.34628 38996 ft 430 kts 165°
2026-05-04 12:10 48.39181 9.37524 38987 ft 430 kts 165°
2026-05-04 12:11 48.33549 9.40393 38984 ft 430 kts 165°
2026-05-04 12:11 48.27845 9.43292 38987 ft 430 kts 165°
2026-05-04 12:12 48.22220 9.46143 38975 ft 430 kts 165°
2026-05-04 12:12 48.16539 9.49015 38986 ft 433 kts 165°
2026-05-04 12:14 47.94614 9.63808 38982 ft 441 kts 149°
2026-05-04 12:15 47.89559 9.69013 38984 ft 442 kts 149°
2026-05-04 12:15 47.84505 9.74170 38976 ft 439 kts 149°
2026-05-04 12:16 47.79441 9.79313 38979 ft 442 kts 149°
2026-05-04 12:16 47.74375 9.84450 38982 ft 440 kts 149°
2026-05-04 12:17 47.69340 9.89542 38980 ft 441 kts 149°
2026-05-04 12:17 47.64273 9.94654 38981 ft 441 kts 149°
2026-05-04 12:18 47.59191 9.99768 38987 ft 442 kts 149°
2026-05-04 12:18 47.54110 10.04870 38981 ft 442 kts 149°
2026-05-04 12:19 47.49005 10.09983 39002 ft 444 kts 149°
2026-05-04 12:19 47.43894 10.15090 38998 ft 444 kts 149°
2026-05-04 12:20 47.39636 10.19337 39023 ft 444 kts 149°
2026-05-04 12:20 47.33696 10.25247 39016 ft 443 kts 149°
2026-05-04 12:21 47.28563 10.30340 39028 ft 444 kts 149°
2026-05-04 12:21 47.23433 10.35417 39036 ft 444 kts 149°
2026-05-04 12:22 47.19161 10.39638 39054 ft 444 kts 149°
2026-05-04 12:22 47.14034 10.44696 39049 ft 444 kts 149°
2026-05-04 12:23 47.08885 10.49689 39034 ft 443 kts 152°
2026-05-04 12:23 47.03411 10.53738 39057 ft 440 kts 161°
2026-05-04 12:24 46.97616 10.56566 39057 ft 439 kts 166°
2026-05-04 12:24 46.91778 10.59174 39063 ft 439 kts 166°
2026-05-04 12:25 46.85979 10.61787 39071 ft 439 kts 166°
2026-05-04 12:25 46.80133 10.64418 39086 ft 439 kts 166°
2026-05-04 12:26 46.74298 10.67038 39088 ft 439 kts 166°
2026-05-04 12:26 46.68442 10.69654 39107 ft 442 kts 166°
2026-05-04 12:27 46.62591 10.72249 39112 ft 439 kts 166°
2026-05-04 12:27 46.56794 10.74811 39109 ft 439 kts 166°
2026-05-04 12:28 46.50943 10.77395 39120 ft 440 kts 166°
2026-05-04 12:28 46.45093 10.79974 39126 ft 439 kts 167°
2026-05-04 12:29 46.39273 10.82535 39165 ft 436 kts 167°
2026-05-04 12:29 46.33445 10.84773 39175 ft 431 kts 174°
2026-05-04 12:30 46.27515 10.85334 39184 ft 430 kts 186°
2026-05-04 12:30 46.21597 10.84336 39178 ft 429 kts 185°
2026-05-04 12:31 46.18605 10.84582 39178 ft 435 kts 172°
2026-05-04 12:31 46.15652 10.85617 39176 ft 438 kts 167°
2026-05-04 12:31 46.09804 10.88012 38860 ft 436 kts 168°
2026-05-04 12:32 46.06900 10.89072 38157 ft 437 kts 169°
2026-05-04 12:32 46.00922 10.91049 36188 ft 447 kts 170°
2026-05-04 12:32 45.97877 10.92020 35282 ft 449 kts 169°
2026-05-04 12:33 45.94821 10.92991 34447 ft 450 kts 169°
2026-05-04 12:33 45.91764 10.93962 33547 ft 450 kts 169°
2026-05-04 12:33 45.88698 10.94939 32552 ft 452 kts 169°
2026-05-04 12:33 45.85621 10.95919 31532 ft 455 kts 169°
2026-05-04 12:34 45.82524 10.96905 30597 ft 455 kts 170°
2026-05-04 12:34 45.79438 10.97886 29559 ft 455 kts 170°
2026-05-04 12:34 45.76352 10.98865 28546 ft 454 kts 170°
2026-05-04 12:34 45.73282 10.99837 27761 ft 449 kts 169°
2026-05-04 12:35 45.70243 11.00799 26966 ft 445 kts 169°
2026-05-04 12:35 45.67250 11.01747 26351 ft 437 kts 169°
2026-05-04 12:35 45.64303 11.02679 25750 ft 431 kts 169°
2026-05-04 12:35 45.61375 11.03509 25136 ft 425 kts 172°
2026-05-04 12:36 45.58490 11.04193 24514 ft 420 kts 172°
2026-05-04 12:36 45.55599 11.04849 23895 ft 416 kts 172°
2026-05-04 12:36 45.52795 11.05494 23303 ft 411 kts 172°
2026-05-04 12:36 45.49998 11.06152 22720 ft 405 kts 172°
2026-05-04 12:37 45.47236 11.06814 22140 ft 399 kts 172°
2026-05-04 12:37 45.44519 11.07469 21570 ft 393 kts 172°
2026-05-04 12:37 45.41837 11.08118 21006 ft 388 kts 172°
2026-05-04 12:37 45.39191 11.08757 20443 ft 383 kts 172°
2026-05-04 12:38 45.36578 11.09388 19969 ft 377 kts 172°
2026-05-04 12:38 45.34010 11.10007 19340 ft 376 kts 172°
2026-05-04 12:38 45.31421 11.10630 18212 ft 381 kts 172°
2026-05-04 12:38 45.28795 11.11259 17026 ft 382 kts 172°
2026-05-04 12:39 45.26182 11.11885 16256 ft 378 kts 171°
2026-05-04 12:39 45.23617 11.12501 15643 ft 372 kts 171°
2026-05-04 12:39 45.21080 11.13108 15038 ft 367 kts 171°
2026-05-04 12:39 45.18577 11.13707 14428 ft 362 kts 171°
2026-05-04 12:40 45.16107 11.14297 13835 ft 358 kts 171°
2026-05-04 12:40 45.13660 11.14883 13134 ft 355 kts 171°
2026-05-04 12:40 45.11230 11.15466 12430 ft 353 kts 171°
2026-05-04 12:40 45.08815 11.16045 11750 ft 351 kts 171°
2026-05-04 12:41 45.06445 11.16611 11105 ft 349 kts 172°
2026-05-04 12:41 45.04057 11.17181 10547 ft 345 kts 172°
2026-05-04 12:41 45.01748 11.17731 10398 ft 328 kts 172°
2026-05-04 12:41 44.99550 11.18256 10268 ft 313 kts 172°
2026-05-04 12:42 44.97454 11.18755 10151 ft 298 kts 172°
2026-05-04 12:42 44.95452 11.19232 10018 ft 285 kts 172°
2026-05-04 12:42 44.93519 11.19690 9663 ft 280 kts 172°
2026-05-04 12:42 44.91594 11.19962 9179 ft 278 kts 186°
2026-05-04 12:43 44.89779 11.19216 8709 ft 277 kts 209°
2026-05-04 12:43 44.88239 11.17598 8254 ft 277 kts 219°
2026-05-04 12:43 44.86747 11.15881 7821 ft 276 kts 219°
2026-05-04 12:43 44.85284 11.14197 7636 ft 266 kts 219°
2026-05-04 12:44 44.83880 11.12587 7501 ft 255 kts 218°
2026-05-04 12:44 44.82508 11.11020 7177 ft 253 kts 218°
2026-05-04 12:44 44.81141 11.09466 6828 ft 253 kts 218°
2026-05-04 12:44 44.79771 11.07913 6491 ft 252 kts 218°
2026-05-04 12:45 44.78424 11.06384 6146 ft 252 kts 218°
2026-05-04 12:45 44.77066 11.04837 5805 ft 251 kts 218°
2026-05-04 12:45 44.75707 11.03295 5443 ft 250 kts 218°
2026-05-04 12:45 44.74317 11.01830 5084 ft 250 kts 211°
2026-05-04 12:46 44.72779 11.00705 4720 ft 249 kts 205°
2026-05-04 12:46 44.71231 10.99635 4416 ft 247 kts 206°
2026-05-04 12:46 44.69700 10.98569 4157 ft 243 kts 206°
2026-05-04 12:46 44.68205 10.97521 4080 ft 242 kts 206°
2026-05-04 12:47 44.66605 10.96814 4080 ft 243 kts 182°
2026-05-04 12:47 44.64964 10.97299 4078 ft 244 kts 151°
2026-05-04 12:47 44.63728 10.98878 4083 ft 243 kts 122°
2026-05-04 12:47 44.62993 11.01001 4077 ft 242 kts 111°
2026-05-04 12:48 44.62433 11.03149 4047 ft 232 kts 109°
2026-05-04 12:48 44.61905 11.05281 3729 ft 233 kts 111°
2026-05-04 12:48 44.61272 11.07369 3380 ft 232 kts 115°
2026-05-04 12:48 44.60548 11.09417 3037 ft 229 kts 117°
2026-05-04 12:49 44.59852 11.11352 2746 ft 222 kts 116°
2026-05-04 12:49 44.59166 11.13248 2447 ft 214 kts 116°
2026-05-04 12:49 44.58507 11.15074 2192 ft 205 kts 116°
2026-05-04 12:49 44.57893 11.16785 1935 ft 189 kts 116°
2026-05-04 12:50 44.57328 11.18346 1679 ft 171 kts 116°
2026-05-04 12:50 44.56820 11.19756 1431 ft 152 kts 116°
2026-05-04 12:50 44.56368 11.21012 1218 ft 137 kts 116°
2026-05-04 12:50 44.55951 11.22166 1031 ft 132 kts 115°
2026-05-04 12:51 44.55536 11.23322 833 ft 131 kts 115°
2026-05-04 12:51 44.55121 11.24477 672 ft 133 kts 115°
2026-05-04 12:51 44.54708 11.25627 458 ft 131 kts 115°
2026-05-04 12:51 44.54294 11.26778 306 ft 131 kts 115°
2026-05-04 12:52 44.53858 11.27988 138 ft 132 kts 116°
2026-05-04 12:52 44.53515 11.28940 124 ft 80 kts 116°
2026-05-04 12:52 44.53390 11.29295 125 ft 31 kts 116°
2026-05-04 12:52 44.53266 11.29565 129 ft 30 kts 132°
2026-05-04 12:53 44.53133 11.29708 129 ft 15 kts 146°
2026-05-04 12:53 44.53043 11.29780 130 ft 0 kts 187°
2026-05-04 12:53 44.53037 11.29738 130 ft 11 kts 276°
2026-05-04 12:53 44.53078 11.29605 127 ft 10 kts 280°
2026-05-04 12:54 44.53074 11.29489 129 ft 14 kts 298°
2026-05-04 12:54 44.53073 11.29460 128 ft 5 kts 241°
2026-05-04 12:54 44.53038 11.29432 130 ft 1 kts 207°
2026-05-04 12:54 44.53031 11.29427 125 ft 0 kts 206°